Location: Gradaro
(45.0833°N, 10.8833°E)
Time: 14:43:48
(UTC+00:00)

Cosmos 2112 Rocket - Pass Details

Date: 29 November 2020
Orbit: 756 x 787 km, 74.0° (Epoch: 24 January)

Event Time Altitude Azimuth Distance (km) Brightness Sun altitude
Exits shadow 04:38:53 21° 334° (NNW) 1,716 5.5 -19.5°
Maximum altitude 04:42:32 75° 252° (WSW) 817 3.9 -18.9°
Drops below altitude 10° 04:47:50 10° 167° (SSE) 2,336 6.8 -18.0°
Sets 04:50:13 0° 166° (SSE) 3,257 7.6 -17.6°
